Location: Boursonne
(49.2024°N, 3.0468°E)
Time: 08:15:09
(UTC+00:00)

USA 281 - Pass Details

Date: 03 March 2021
Orbit: 1076 x 1083 km, 106.0° (Epoch: 03 April)

Event Time Altitude Azimuth Distance (km) Brightness Sun altitude
Exits shadow 21:34:29 39° 1° (N) 1,571 4.2 -37.5°
Drops below altitude 10° 21:38:38 10° 340° (NNW) 2,927 6.1 -38.0°
Sets 21:41:12 0° 336° (NNW) 3,887 6.9 -38.3°
